Weather reports worldwide

Advertisment
Gibraltar, United Kingdom (8495): temperature & dewpoint: 26.06.2020 07:00:00 - 02.07.2020 07:00:00 (CEST)Gibraltar, United Kingdom (8495): wind speed: 26.06.2020 07:00:00 - 02.07.2020 07:00:00 (CEST)Gibraltar, United Kingdom (8495): wind direction: 26.06.2020 07:00:00 - 02.07.2020 07:00:00 (CEST)Gibraltar, United Kingdom (8495): reduced air pressure: 26.06.2020 07:00:00 - 02.07.2020 07:00:00 (CEST)Gibraltar, United Kingdom (8495): visibility: 26.06.2020 07:00:00 - 02.07.2020 07:00:00 (CEST)Gibraltar, United Kingdom (8495): sunshine duration: 26.06.2020 07:00:00 - 02.07.2020 07:00:00 (CEST)
Date & Time tt [°C] td [°C] ff [km/h] ff [kn] dd ppp [hPa] vv [km] sd [min]
02.07.2020 07:00:00 22,9 15,2 16 9 WSW 1014,5 20 0
02.07.2020 06:00:00 23,7 14,7 22 12 SW 1014,2 20 0
02.07.2020 05:00:00 22,8 16,0 21 11 WSW 1014,1 16 0
02.07.2020 04:00:00 23,1 14,9 18 10 SW 1014,2 18 0
02.07.2020 03:00:00 24,3 13,2 22 12 WSW 1014,3 18 0
02.07.2020 02:00:00 25,4 11,9 21 11 SW 1014,4 19 -
02.07.2020 01:00:00 24,1 14,6 21 11 SW 1014,5 18 0
02.07.2020 00:00:00 23,1 17,1 31 17 SSW 1014,4 17 0
01.07.2020 23:00:00 26,9 13,6 21 11 SW 1013,3 18 0
01.07.2020 22:00:00 27,9 13,6 22 12 SW 1012,8 18 0
01.07.2020 21:00:00 29,3 13,5 21 11 SW 1012,8 17 54
01.07.2020 20:00:00 28,1 16,4 18 10 SW 1012,7 15 60
01.07.2020 19:00:00 29,2 16,1 16 9 SW 1012,8 20 60
01.07.2020 18:00:00 29,2 15,7 18 10 SSW 1013,2 20 60
01.07.2020 17:00:00 29,7 16,9 18 10 SW 1013,4 35 60
01.07.2020 16:00:00 27,6 18,0 26 14 SSW 1013,9 35 60
01.07.2020 15:00:00 27,7 17,3 26 14 SSW 1014,0 40 60
01.07.2020 14:00:00 28,0 17,2 21 11 SSW 1014,5 25 60
01.07.2020 13:00:00 28,0 17,4 16 9 SSW 1014,7 15 60
01.07.2020 12:00:00 27,0 17,5 9 5 SW 1014,7 25 60
01.07.2020 11:00:00 25,1 17,8 15 8 WSW 1014,8 25 60
01.07.2020 10:00:00 23,3 18,0 13 7 SW 1014,6 25 60
01.07.2020 09:00:00 21,7 17,8 18 10 WSW 1014,4 14 60
01.07.2020 08:00:00 21,0 17,6 16 9 SW 1014,0 25 6
01.07.2020 07:00:00 21,0 17,6 13 7 WSW 1013,8 25 0
01.07.2020 06:00:00 22,2 17,3 16 9 SW 1013,4 20 0
01.07.2020 05:00:00 22,5 17,0 18 10 WSW 1013,2 15 0
01.07.2020 04:00:00 22,4 17,0 16 9 WSW 1013,4 16 0
01.07.2020 03:00:00 22,2 18,5 11 6 W 1013,7 13 0
01.07.2020 02:00:00 22,9 19,5 8 4 WSW 1014,0 11 -
01.07.2020 01:00:00 21,4 18,7 13 7 W 1014,2 11 0
01.07.2020 00:00:00 22,1 20,0 8 4 NW 1013,9 9 0
30.06.2020 23:00:00 22,9 19,7 4 2 NNE 1013,3 11 0
30.06.2020 22:00:00 24,5 19,4 4 2 SSW 1012,7 13 24
30.06.2020 21:00:00 25,7 20,1 4 2 E 1012,2 11 60
30.06.2020 20:00:00 25,8 20,1 9 5 ESE 1012,0 7 60
30.06.2020 19:00:00 26,3 19,9 11 6 ESE 1012,3 8 60
30.06.2020 18:00:00 26,5 18,6 15 8 ESE 1012,9 8 60
30.06.2020 17:00:00 26,0 19,4 16 9 ESE 1013,1 6 60
30.06.2020 16:00:00 25,4 20,2 18 10 E 1013,6 5 60
30.06.2020 15:00:00 24,0 20,1 13 7 E 1014,0 6 60
30.06.2020 14:00:00 23,8 19,9 13 7 ENE 1014,3 6 60
30.06.2020 13:00:00 23,2 19,6 11 6 ENE 1014,2 4,0 60
30.06.2020 12:00:00 22,9 19,9 9 5 ENE 1014,0 5 60
30.06.2020 11:00:00 22,5 19,6 9 5 ENE 1013,8 7 60
30.06.2020 10:00:00 22,4 19,4 8 4 ENE 1013,4 7 60
30.06.2020 09:00:00 21,9 19,7 5 3 NE 1012,9 9 36
30.06.2020 08:00:00 20,9 19,6 5 3 E 1012,6 7 0
30.06.2020 07:00:00 21,0 19,1 4 2 E 1012,4 8 0
30.06.2020 06:00:00 21,5 19,7 9 5 ENE 1012,1 10 0
30.06.2020 05:00:00 22,4 20,2 18 10 SE 1012,3 13 0
30.06.2020 04:00:00 21,3 18,8 15 8 ENE 1012,5 15 0
30.06.2020 03:00:00 21,0 17,4 15 8 ENE 1013,2 16 0
30.06.2020 02:00:00 20,9 17,0 8 4 WSW 1013,8 10 -
30.06.2020 01:00:00 20,5 17,8 13 7 ENE 1014,3 16 0
30.06.2020 00:00:00 20,5 17,5 11 6 ENE 1014,3 16 0
29.06.2020 23:00:00 20,9 17,6 15 8 ENE 1013,9 16 0
29.06.2020 22:00:00 22,6 15,9 15 8 NE 1013,3 18 6
29.06.2020 21:00:00 23,3 17,0 16 9 NE 1013,3 17 60
29.06.2020 20:00:00 24,0 17,3 11 6 NE 1013,3 13 60
29.06.2020 19:00:00 24,4 17,9 13 7 NE 1013,5 13 60
29.06.2020 18:00:00 24,7 17,4 15 8 ENE 1014,0 15 60
29.06.2020 17:00:00 25,3 18,0 13 7 ENE 1014,6 18 60
29.06.2020 16:00:00 24,2 18,4 13 7 ENE 1015,3 20 60
29.06.2020 15:00:00 24,0 18,0 15 8 ENE 1015,5 25 60
29.06.2020 14:00:00 24,0 18,0 15 8 E 1016,2 25 60
29.06.2020 13:00:00 24,6 17,1 15 8 E 1016,4 25 60
29.06.2020 12:00:00 23,4 17,2 13 7 E 1016,5 20 60
29.06.2020 11:00:00 24,0 17,2 11 6 ENE 1016,2 20 60
29.06.2020 10:00:00 23,5 17,9 5 3 NE 1015,9 15 60
29.06.2020 09:00:00 21,3 18,1 4 2 E 1015,8 5 48
29.06.2020 08:00:00 19,7 18,1 0 0 N 1015,8 4,0 0
29.06.2020 07:00:00 19,7 18,6 5 3 WSW 1015,6 3,0 0
29.06.2020 06:00:00 20,2 19,5 4 2 NNE 1015,1 12 0
29.06.2020 05:00:00 20,4 19,9 9 5 E 1015,8 1,0 0
29.06.2020 04:00:00 20,5 19,9 11 6 E 1016,1 10 0
29.06.2020 03:00:00 20,9 20,1 8 4 NNE 1016,8 5 0
29.06.2020 02:00:00 20,6 19,4 11 6 ENE 1017,1 12 -
29.06.2020 01:00:00 20,5 19,6 13 7 ENE 1017,0 13 0
29.06.2020 00:00:00 20,7 19,5 13 7 ENE 1016,9 12 0
28.06.2020 23:00:00 20,6 19,3 13 7 ENE 1016,5 12 0
28.06.2020 22:00:00 21,5 19,6 13 7 ENE 1015,9 12 30
28.06.2020 21:00:00 22,2 19,6 11 6 E 1015,4 13 60
28.06.2020 20:00:00 22,4 19,6 15 8 E 1015,1 10 60
28.06.2020 19:00:00 23,1 19,7 13 7 E 1015,3 12 60
28.06.2020 18:00:00 23,7 19,2 13 7 ENE 1015,7 15 60
28.06.2020 17:00:00 24,7 18,4 15 8 E 1015,9 20 60
28.06.2020 16:00:00 23,4 18,7 15 8 E 1016,3 20 60
28.06.2020 15:00:00 24,4 18,1 9 5 E 1016,7 25 60
28.06.2020 14:00:00 23,4 18,3 11 6 E 1017,1 20 60
28.06.2020 13:00:00 23,1 18,2 11 6 E 1017,2 20 60
28.06.2020 12:00:00 24,9 18,2 11 6 ESE 1017,1 25 60
28.06.2020 11:00:00 24,2 18,5 5 3 E 1016,9 20 60
28.06.2020 10:00:00 23,2 16,7 5 3 W 1016,7 20 60
28.06.2020 09:00:00 20,2 16,5 8 4 W 1016,6 20 60
28.06.2020 08:00:00 20,4 16,9 2 1 WNW 1015,9 20 6
28.06.2020 07:00:00 21,5 17,0 2 1 E 1015,5 25 0
28.06.2020 06:00:00 21,2 16,5 5 3 E 1015,5 20 0
28.06.2020 05:00:00 22,1 15,9 4 2 SSW 1015,5 18 0
28.06.2020 04:00:00 23,7 15,8 15 8 SW 1015,5 18 0
28.06.2020 03:00:00 23,2 16,6 22 12 SW 1015,5 18 0
28.06.2020 02:00:00 22,2 17,6 29 16 SW 1015,9 17 -
28.06.2020 01:00:00 22,6 17,6 28 15 SW 1016,1 17 0
28.06.2020 00:00:00 23,4 17,5 26 14 SW 1015,8 18 0
27.06.2020 23:00:00 23,9 17,8 24 13 SW 1015,3 17 0
27.06.2020 22:00:00 23,3 18,0 34 18 SSW 1014,7 17 30
27.06.2020 21:00:00 26,0 17,7 22 12 SW 1014,4 17 60
27.06.2020 20:00:00 25,6 17,5 24 13 SSW 1014,4 20 60
27.06.2020 19:00:00 25,4 17,6 26 14 SSW 1014,8 25 60
27.06.2020 18:00:00 27,2 17,7 18 10 SSW 1015,5 40 60
27.06.2020 17:00:00 26,6 17,9 21 11 SSW 1015,8 40 60
27.06.2020 16:00:00 27,7 17,6 18 10 SW 1016,1 40 60
27.06.2020 15:00:00 27,1 17,0 18 10 SW 1016,5 40 60
27.06.2020 14:00:00 27,2 16,4 18 10 WSW 1016,8 40 60
27.06.2020 13:00:00 26,1 16,1 22 12 WSW 1016,9 40 60
27.06.2020 12:00:00 24,5 16,7 26 14 W 1017,1 40 60
27.06.2020 11:00:00 22,6 17,0 26 14 W 1017,0 40 60
27.06.2020 10:00:00 21,9 17,1 26 14 W 1016,9 40 60
27.06.2020 09:00:00 20,9 16,8 18 10 W 1016,7 40 60
27.06.2020 08:00:00 20,2 16,1 15 8 WSW 1016,4 40 6
27.06.2020 07:00:00 20,1 15,4 16 9 WSW 1015,9 10 0
27.06.2020 06:00:00 20,4 14,5 21 11 WSW 1016,0 17 0
27.06.2020 05:00:00 20,5 14,4 22 12 WSW 1016,0 17 0
27.06.2020 04:00:00 20,1 15,0 24 13 W 1016,2 17 0
27.06.2020 03:00:00 19,5 15,7 28 15 W 1016,6 17 0
27.06.2020 02:00:00 20,2 15,8 21 11 WSW 1017,1 16 -
27.06.2020 01:00:00 20,3 16,2 24 13 W 1017,0 16 0
27.06.2020 00:00:00 21,5 15,7 22 12 SW 1016,6 16 0
26.06.2020 23:00:00 22,4 15,1 24 13 WSW 1015,9 18 0
26.06.2020 22:00:00 23,4 15,9 28 15 W 1015,1 18 36
26.06.2020 21:00:00 25,5 15,6 22 12 WSW 1014,9 14 60
26.06.2020 20:00:00 26,2 16,2 24 13 W 1014,7 20 60
26.06.2020 19:00:00 27,5 15,9 15 8 WSW 1014,9 20 60
26.06.2020 18:00:00 27,7 16,3 18 10 SW 1015,3 20 60
26.06.2020 17:00:00 27,6 16,7 18 10 SW 1015,7 20 60
26.06.2020 16:00:00 26,7 17,0 18 10 SW 1016,2 20 60
26.06.2020 15:00:00 27,0 17,6 16 9 SW 1016,2 15 60
26.06.2020 14:00:00 24,5 17,6 24 13 W 1016,6 15 60
26.06.2020 13:00:00 24,4 17,7 22 12 W 1016,4 15 60
26.06.2020 12:00:00 24,5 16,9 15 8 SW 1016,2 15 60
26.06.2020 11:00:00 23,4 17,4 11 6 SSW 1016,2 15 36
26.06.2020 10:00:00 22,2 17,6 13 7 WSW 1016,2 14 12
26.06.2020 09:00:00 21,9 17,2 11 6 WSW 1016,2 14 48
26.06.2020 08:00:00 21,4 17,0 11 6 SW 1015,8 10 0
26.06.2020 07:00:00 20,0 17,1 11 6 W 1015,7 12 0

tt = temperature
td = dewpoint
ff = wind speed
dd = wind direction
ppp = reduced air pressure
vv = visibility
sd = sunshine duration

Next stations